Location: Grand Rapids
(42.9630°N, 85.6680°W)
Time: 06:54:01
(UTC-04:00)

Tiros 1 - Pass Details

Date: 22 April 2025
Orbit: 620 x 652 km, 48.4° (Epoch: 13 May)

Event Time Altitude Azimuth Distance (km) Brightness Sun altitude
Exits shadow 04:06:27 15° 129° (SE) 1,723 9.3 -25.5°
Drops below altitude 10° 04:08:57 10° 97° (E) 2,051 10.1 -25.2°
Sets 04:12:10 0° 75° (ENE) 2,968 11.4 -24.8°
